Date String (YYYY-MM-DD hh:mm:ss) UTC,Instrument flags,Ambient pressure (hPa),Sample flow (lpm),Bypass flow (lpm),Sample temperature (°C),Ambient temperature (°C),ASC tube jacket temperature (°C),LED temperature (°C),Box temperature (°C),Sample RH (%),Mass concentration (μg/m³),Mass concentration (μg/m³)
DateTimeUTC,F1_M11,P_M11,Q1_M11,Q2_M11,T1_M11,T2_M11,T3_M11,T4_M11,T5_M11,U1_M11,X0_M11,X2_M11
2021-08-12 14:00:00,FlowAlarm;OPCInstrumentWarning,0831.7,5.00,0.00,29.7,26.6,00.0,39.0,31.3,15.8,0030.91,0022.26
2021-08-12 14:01:00,FlowAlarm;OPCInstrumentWarning,0831.7,5.00,0.00,29.6,27.0,00.0,39.0,31.3,14.8,0030.70,0022.27
2021-08-12 14:02:00,FlowAlarm;OPCInstrumentWarning,0831.7,5.00,0.00,29.6,27.4,00.0,38.9,31.4,15.4,0030.46,0022.28
2021-08-12 14:03:00,FlowAlarm;OPCInstrumentWarning,0831.7,4.99,0.00,29.6,27.7,00.0,38.9,31.4,15.0,0029.98,0022.18
2021-08-12 14:04:00,FlowAlarm;OPCInstrumentWarning,0831.7,5.00,0.00,29.6,28.0,00.0,38.9,31.5,14.7,0029.46,0022.08
2021-08-12 14:05:00,FlowAlarm;OPCInstrumentWarning,0831.7,5.01,0.00,29.6,28.2,00.0,38.9,31.5,15.1,0029.32,0021.94
2021-08-12 14:06:00,FlowAlarm;OPCInstrumentWarning,0831.9,4.99,0.00,29.6,28.4,00.0,38.9,31.5,15.7,0029.20,0021.92
2021-08-12 14:07:00,FlowAlarm;OPCInstrumentWarning,0831.9,5.01,0.00,29.7,28.5,00.0,38.9,31.6,15.6,0029.04,0021.86
2021-08-12 14:08:00,FlowAlarm;OPCInstrumentWarning,0831.9,4.99,0.00,29.7,28.7,00.0,38.9,31.6,16.0,0029.19,0021.91
2021-08-12 14:09:00,FlowAlarm;OPCInstrumentWarning,0832.0,5.00,0.00,29.7,28.8,00.0,38.9,31.7,15.8,0029.12,0021.83
2021-08-12 14:10:00,FlowAlarm;OPCInstrumentWarning,0831.9,5.00,0.00,29.8,28.9,00.0,38.9,31.7,15.3,0029.12,0021.73
2021-08-12 14:11:00,FlowAlarm;OPCInstrumentWarning,0832.0,5.01,0.00,29.8,28.9,00.0,38.9,31.7,14.9,0029.96,0021.56
2021-08-12 14:12:00,FlowAlarm;OPCInstrumentWarning,0832.0,4.99,0.00,29.8,29.0,00.0,39.0,31.8,15.1,0029.68,0021.34
2021-08-12 14:13:00,FlowAlarm;OPCInstrumentWarning,0831.9,5.02,0.00,29.9,29.0,00.0,39.0,31.8,15.3,0029.63,0021.18
2021-08-12 14:14:00,FlowAlarm;OPCInstrumentWarning,0832.0,5.00,0.00,29.9,29.1,00.0,39.0,31.9,15.6,0029.99,0021.12
2021-08-12 14:15:00,FlowAlarm;OPCInstrumentWarning,0832.0,4.98,0.00,29.9,29.2,00.0,39.0,31.9,15.5,0030.75,0021.05
2021-08-12 14:16:00,FlowAlarm;OPCInstrumentWarning,0832.1,5.00,0.00,30.0,29.2,00.0,39.0,31.9,15.2,0030.84,0021.00
2021-08-12 14:17:00,FlowAlarm;OPCInstrumentWarning,0832.1,5.01,0.00,30.0,28.7,00.0,39.0,31.8,15.6,0031.88,0020.91
2021-08-12 14:18:00,FlowAlarm;OPCInstrumentWarning,0832.1,5.00,0.00,29.9,27.0,00.0,39.0,31.3,16.3,0031.81,0020.85
2021-08-12 14:19:00,FlowAlarm;OPCInstrumentWarning,0832.1,5.00,0.00,29.8,26.5,00.0,39.0,31.2,16.6,0032.04,0020.75
2021-08-12 14:20:00,FlowAlarm;OPCInstrumentWarning,0832.1,4.99,0.00,29.7,26.9,00.0,39.0,31.3,16.9,0032.30,0020.75
2021-08-12 14:21:00,FlowAlarm;OPCInstrumentWarning,0832.1,5.01,0.00,29.6,27.3,00.0,38.9,31.3,16.6,0032.65,0020.77
2021-08-12 14:22:00,FlowAlarm;OPCInstrumentWarning,0832.1,5.00,0.00,29.6,27.6,00.0,38.9,31.4,16.1,0031.68,0020.81
2021-08-12 14:23:00,FlowAlarm;OPCInstrumentWarning,0832.1,5.01,0.00,29.6,27.9,00.0,38.9,31.5,16.3,0031.30,0020.82
2021-08-12 14:24:00,FlowAlarm;OPCInstrumentWarning,0832.2,5.00,0.00,29.6,28.2,00.0,38.9,31.5,16.3,0030.67,0020.78
2021-08-12 14:25:00,FlowAlarm;OPCInstrumentWarning,0832.2,5.01,0.00,29.7,28.4,00.0,38.9,31.6,16.4,0030.52,0020.78
2021-08-12 14:26:00,FlowAlarm;OPCInstrumentWarning,0832.3,4.99,0.00,29.7,28.5,00.0,38.9,31.6,16.9,0029.65,0020.85
2021-08-12 14:27:00,FlowAlarm;OPCInstrumentWarning,0832.2,4.99,0.00,29.7,28.7,00.0,38.9,31.7,17.0,0029.68,0020.87
2021-08-12 14:28:00,FlowAlarm;OPCInstrumentWarning,0832.3,5.01,0.00,29.8,28.8,00.0,38.9,31.7,17.1,0028.80,0020.84
2021-08-12 14:29:00,FlowAlarm;OPCInstrumentWarning,0832.3,4.99,0.00,29.8,28.9,00.0,38.9,31.8,17.3,0029.04,0020.86
2021-08-12 14:30:00,FlowAlarm;OPCInstrumentWarning,0832.4,5.02,0.00,29.8,29.0,00.0,38.9,31.8,17.0,0028.98,0020.98
2021-08-12 14:31:00,FlowAlarm;OPCInstrumentWarning,0832.3,4.99,0.00,29.9,29.1,00.0,38.9,31.9,17.0,0028.73,0021.01
2021-08-12 14:32:00,FlowAlarm;OPCInstrumentWarning,0832.4,5.00,0.00,29.9,29.1,00.0,39.0,31.9,17.4,0028.05,0020.95
2021-08-12 14:33:00,FlowAlarm;OPCInstrumentWarning,0832.4,5.00,0.00,30.0,28.7,00.0,39.0,31.8,17.2,0027.77,0020.87
2021-08-12 14:34:00,FlowAlarm;OPCInstrumentWarning,0832.3,4.99,0.00,29.9,26.9,00.0,39.0,31.4,16.8,0028.26,0020.88
2021-08-12 14:35:00,FlowAlarm;OPCInstrumentWarning,0832.4,5.00,0.00,29.8,26.4,00.0,38.9,31.3,18.1,0028.86,0020.88
2021-08-12 14:36:00,FlowAlarm;OPCInstrumentWarning,0832.4,4.98,0.00,29.7,26.8,00.0,38.9,31.3,18.2,0028.65,0020.92
2021-08-12 14:37:00,FlowAlarm;OPCInstrumentWarning,0832.5,5.01,0.00,29.6,27.2,00.0,38.9,31.3,18.4,0029.04,0020.98
2021-08-12 14:38:00,FlowAlarm;OPCInstrumentWarning,0832.4,4.99,0.00,29.6,27.6,00.0,38.8,31.4,17.9,0029.10,0021.02
2021-08-12 14:39:00,FlowAlarm;OPCInstrumentWarning,0832.5,5.01,0.00,29.6,27.9,00.0,38.8,31.5,17.4,0029.71,0021.05
2021-08-12 14:40:00,FlowAlarm;OPCInstrumentWarning,0832.5,5.00,0.00,29.6,28.2,00.0,38.8,31.5,17.6,0029.87,0021.04
2021-08-12 14:41:00,FlowAlarm;OPCInstrumentWarning,0832.5,5.00,0.00,29.6,28.4,00.0,38.8,31.6,17.6,0030.78,0020.93
2021-08-12 14:42:00,FlowAlarm;OPCInstrumentWarning,0832.5,4.99,0.00,29.7,28.5,00.0,38.8,31.6,17.8,0031.00,0020.85
2021-08-12 14:43:00,FlowAlarm;OPCInstrumentWarning,0832.5,5.01,0.00,29.7,28.7,00.0,38.8,31.7,17.6,0031.50,0020.94
2021-08-12 14:44:00,FlowAlarm;OPCInstrumentWarning,0832.5,4.99,0.00,29.7,28.8,00.0,38.9,31.7,17.8,0032.29,0021.11
2021-08-12 14:45:00,FlowAlarm;OPCInstrumentWarning,0832.5,4.99,0.00,29.8,28.9,00.0,38.9,31.7,18.0,0032.91,0021.39
2021-08-12 14:46:00,FlowAlarm;OPCInstrumentWarning,0832.5,5.01,0.00,29.8,29.0,00.0,38.9,31.8,17.6,0033.38,0021.63
2021-08-12 14:47:00,FlowAlarm;OPCInstrumentWarning,0832.5,4.99,0.00,29.9,29.1,00.0,38.9,31.8,18.0,0033.51,0021.70
2021-08-12 14:48:00,FlowAlarm;OPCInstrumentWarning,0832.5,4.99,0.00,29.9,28.5,00.0,38.9,31.7,17.7,0033.57,0021.77
2021-08-12 14:49:00,FlowAlarm;OPCInstrumentWarning,0832.5,5.00,0.00,29.8,26.7,00.0,38.9,31.2,17.9,0034.91,0021.92
2021-08-12 14:50:00,FlowAlarm;OPCInstrumentWarning,0832.5,5.00,0.00,29.6,26.4,00.0,38.9,31.1,18.1,0035.79,0022.16
2021-08-12 14:51:00,FlowAlarm;OPCInstrumentWarning,0832.5,4.99,0.00,29.6,26.8,00.0,38.8,31.2,18.2,0036.32,0022.47
2021-08-12 14:52:00,FlowAlarm;OPCInstrumentWarning,0832.5,5.01,0.00,29.5,27.2,00.0,38.8,31.3,18.4,0035.57,0022.80
2021-08-12 14:53:00,FlowAlarm;OPCInstrumentWarning,0832.5,4.99,0.00,29.5,27.5,00.0,38.8,31.3,18.6,0037.46,0023.23
2021-08-12 14:54:00,FlowAlarm;OPCInstrumentWarning,0832.6,5.02,0.00,29.5,27.8,00.0,38.8,31.4,19.0,0039.41,0023.61
2021-08-12 14:55:00,FlowAlarm;OPCInstrumentWarning,0832.6,4.99,0.00,29.5,28.1,00.0,38.8,31.5,19.4,0040.01,0023.86
2021-08-12 14:56:00,FlowAlarm;OPCInstrumentWarning,0832.6,5.00,0.00,29.5,28.3,00.0,38.8,31.5,19.3,0039.97,0024.06
2021-08-12 14:57:00,FlowAlarm;OPCInstrumentWarning,0832.6,4.99,0.00,29.6,28.5,00.0,38.8,31.6,19.3,0039.36,0024.34
2021-08-12 14:58:00,FlowAlarm;OPCInstrumentWarning,0832.6,5.01,0.00,29.6,28.6,00.0,38.8,31.6,19.5,0040.20,0024.69
2021-08-12 14:59:00,FlowAlarm;OPCInstrumentWarning,0832.6,5.01,0.00,29.7,28.8,00.0,38.8,31.7,19.6,0040.52,0025.05
